| time (UTC) | temp F | wind direction | speed MPH | gust MPH | rain 1hr in | rain 24hr in | rain mn in | humidity % | barometer mb |
| 20260504024011 | 62 | 203 | 0.0 | 6.0 | 0.00 | 0.00 | 0.00 | 59 | 1006.9 |
| 20260504023011 | 62 | 255 | 1.0 | 4.0 | 0.00 | 0.00 | 0.00 | 58 | 1006.8 |
| 20260504022010 | 63 | 253 | 0.0 | 4.0 | 0.00 | 0.00 | 0.00 | 58 | 1006.8 |
| 20260504021010 | 63 | 229 | 1.0 | 4.0 | 0.00 | 0.00 | 0.00 | 57 | 1006.7 |
| 20260504015009 | 63 | 243 | 4.0 | 7.0 | 0.00 | 0.00 | 0.00 | 56 | 1006.6 |
| 20260504014010 | 63 | 221 | 1.0 | 4.0 | 0.00 | 0.00 | 0.00 | 55 | 1006.4 |
| 20260504013009 | 64 | 225 | 1.0 | 3.0 | 0.00 | 0.00 | 0.00 | 54 | 1006.3 |
| 20260504012009 | 64 | 238 | 2.0 | 3.0 | 0.00 | 0.00 | 0.00 | 53 | 1006.2 |
| 20260504011008 | 65 | 240 | 0.0 | 3.0 | 0.00 | 0.00 | 0.00 | 52 | 1006.0 |
| 20260504010038 | 66 | 232 | 2.0 | 3.0 | 0.00 | 0.00 | 0.00 | 50 | 1006.2 |
| 20260504005008 | 67 | 243 | 2.0 | 7.0 | 0.00 | 0.00 | 0.00 | 49 | 1006.2 |
| 20260504004008 | 67 | 249 | 0.0 | 11.0 | 0.00 | 0.00 | 0.00 | 48 | 1006.2 |
| 20260504003037 | 68 | 264 | 1.0 | 9.0 | 0.00 | 0.00 | 0.00 | 46 | 1006.2 |
| 20260504002007 | 68 | 274 | 1.0 | 8.0 | 0.00 | 0.00 | 0.00 | 46 | 1006.2 |
| 20260504001006 | 68 | 260 | 2.0 | 9.0 | 0.00 | 0.00 | 0.00 | 45 | 1006.2 |
| 20260504000037 | 69 | 255 | 9.0 | 11.0 | 0.00 | 0.00 | 0.00 | 45 | 1006.2 |
| 20260503235006 | 69 | 235 | 3.0 | 10.0 | 0.00 | 0.00 | 0.00 | 44 | 1006.1 |
| 20260503234006 | 69 | 262 | 1.0 | 10.0 | 0.00 | 0.00 | 0.00 | 44 | 1006.1 |
| 20260503233006 | 69 | 256 | 2.0 | 11.0 | 0.00 | 0.00 | 0.00 | 43 | 1006.1 |
| 20260503232036 | 69 | 276 | 7.0 | 12.0 | 0.00 | 0.00 | 0.00 | 43 | 1006.2 |
| 20260503231005 | 69 | 210 | 9.0 | 18.0 | 0.00 | 0.00 | 0.00 | 43 | 1006.3 |
| 20260503230035 | 70 | 107 | 2.0 | 14.0 | 0.00 | 0.00 | 0.00 | 43 | 1006.4 |
| 20260503225035 | 69 | 181 | 9.0 | 13.0 | 0.00 | 0.00 | 0.00 | 43 | 1006.4 |
| 20260503224034 | 69 | 226 | 7.0 | 13.0 | 0.00 | 0.00 | 0.00 | 43 | 1006.6 |
| 20260503222035 | 69 | 290 | 6.0 | 17.0 | 0.00 | 0.00 | 0.00 | 42 | 1006.8 |
| 20260503221033 | 69 | 226 | 7.0 | 15.0 | 0.00 | 0.00 | 0.00 | 42 | 1007.1 |
| 20260503220034 | 69 | 146 | 8.0 | 17.0 | 0.00 | 0.00 | 0.00 | 42 | 1007.0 |
| 20260503215034 | 69 | 181 | 5.0 | 18.0 | 0.00 | 0.00 | 0.00 | 41 | 1007.1 |
| 20260503214033 | 68 | 191 | 8.0 | 26.0 | 0.00 | 0.00 | 0.00 | 41 | 1007.0 |
| 20260503213032 | 69 | 280 | 6.0 | 15.0 | 0.00 | 0.00 | 0.00 | 41 | 1007.4 |
| 20260503212032 | 68 | 226 | 9.0 | 16.0 | 0.00 | 0.00 | 0.00 | 40 | 1007.4 |
| 20260503211032 | 68 | 248 | 6.0 | 16.0 | 0.00 | 0.00 | 0.00 | 41 | 1007.6 |
| 20260503210032 | 68 | 245 | 15.0 | 19.0 | 0.00 | 0.00 | 0.00 | 40 | 1007.7 |
| 20260503203030 | 67 | 253 | 6.0 | 19.0 | 0.00 | 0.00 | 0.00 | 44 | 1008.4 |
| 20260503202030 | 67 | 221 | 8.0 | 15.0 | 0.00 | 0.00 | 0.00 | 44 | 1008.7 |
| 20260503201030 | 65 | 197 | 9.0 | 18.0 | 0.00 | 0.00 | 0.00 | 45 | 1008.9 |
| 20260503200030 | 64 | 203 | 10.0 | 15.0 | 0.00 | 0.00 | 0.00 | 50 | 1009.1 |
| 20260503195030 | 64 | 338 | 10.0 | 17.0 | 0.00 | 0.00 | 0.00 | 49 | 1009.1 |
| 20260503194029 | 63 | 218 | 8.0 | 19.0 | 0.00 | 0.00 | 0.00 | 51 | 1009.3 |
| 20260503193030 | 63 | 210 | 8.0 | 14.0 | 0.00 | 0.00 | 0.00 | 51 | 1009.2 |
| 20260503192028 | 61 | 224 | 2.0 | 16.0 | 0.00 | 0.00 | 0.00 | 52 | 1009.4 |
| 20260503191029 | 62 | 238 | 8.0 | 23.0 | 0.00 | 0.00 | 0.00 | 50 | 1009.5 |
| 20260503190029 | 61 | 214 | 10.0 | 17.0 | 0.00 | 0.00 | 0.00 | 52 | 1009.6 |
| 20260503185027 | 59 | 253 | 7.0 | 23.0 | 0.00 | 0.00 | 0.00 | 54 | 1009.8 |
| 20260503184027 | 59 | 221 | 6.0 | 16.0 | 0.00 | 0.00 | 0.00 | 54 | 1010.0 |
| 20260503182026 | 58 | 222 | 10.0 | 16.0 | 0.00 | 0.00 | 0.00 | 58 | 1010.3 |
| 20260503180026 | 56 | 210 | 9.0 | 18.0 | 0.00 | 0.00 | 0.00 | 60 | 1011.1 |
| 20260503175027 | 56 | 218 | 10.0 | 23.0 | 0.00 | 0.00 | 0.00 | 60 | 1011.4 |
| 20260503173025 | 55 | 260 | 2.0 | 17.0 | 0.00 | 0.00 | 0.00 | 63 | 1012.1 |
| 20260503172026 | 54 | 246 | 4.0 | 20.0 | 0.00 | 0.00 | 0.00 | 66 | 1012.3 |
| 20260503171025 | 54 | 212 | 2.0 | 17.0 | 0.00 | 0.00 | 0.00 | 67 | 1012.2 |
| 20260503131018 | 52 | 281 | 3.0 | 11.0 | 0.00 | 0.00 | 0.00 | 56 | 1014.3 |
| 20260503081009 | 46 | 274 | 3.0 | 5.0 | 0.00 | 0.00 | 0.00 | 59 | 1014.7 |
| 20260503072008 | 46 | 271 | 1.0 | 3.0 | 0.00 | 0.00 | 0.00 | 58 | 1014.9 |
| 20260503071008 | 46 | 273 | 1.0 | 3.0 | 0.00 | 0.00 | 0.00 | 57 | 1015.0 |
| 20260503054005 | 46 | 262 | 1.0 | 2.0 | 0.00 | 0.00 | 0.00 | 59 | 1015.7 |
| 20260503053005 | 47 | 262 | 0.0 | 4.0 | 0.00 | 0.00 | 0.00 | 59 | 1015.8 |
| 20260503052035 | 47 | 260 | 1.0 | 3.0 | 0.00 | 0.00 | 0.00 | 59 | 1015.9 |
| 20260503051035 | 47 | 259 | 1.0 | 3.0 | 0.00 | 0.00 | 0.00 | 59 | 1015.9 |
| 20260503050034 | 47 | 257 | 1.0 | 3.0 | 0.00 | 0.00 | 0.00 | 59 | 1015.9 |
| 20260503045034 | 47 | 257 | 1.0 | 3.0 | 0.00 | 0.00 | 0.00 | 58 | 1016.0 |
| 20260503044034 | 47 | 257 | 0.0 | 4.0 | 0.00 | 0.00 | 0.00 | 59 | 1016.0 |
| 20260503043034 | 47 | 259 | 1.0 | 3.0 | 0.00 | 0.00 | 0.00 | 60 | 1016.0 |
| 20260503042033 | 47 | 259 | 0.0 | 3.0 | 0.00 | 0.00 | 0.00 | 59 | 1016.0 |
| 20260503041032 | 47 | 257 | 0.0 | 2.0 | 0.00 | 0.00 | 0.00 | 60 | 1016.1 |
| 20260503040032 | 46 | 257 | 0.0 | 3.0 | 0.00 | 0.00 | 0.00 | 60 | 1016.1 |
| 20260503034032 | 46 | 257 | 0.0 | 1.0 | 0.00 | 0.00 | 0.00 | 62 | 1016.0 |
| 20260503033032 | 45 | 257 | 0.0 | 1.0 | 0.00 | 0.00 | 0.00 | 63 | 1016.1 |
| 20260503032031 | 45 | 257 | 0.0 | 1.0 | 0.00 | 0.00 | 0.00 | 64 | 1016.1 |
| 20260503031032 | 45 | 257 | 0.0 | 1.0 | 0.00 | 0.00 | 0.00 | 67 | 1016.2 |
| 20260503030030 | 44 | 257 | 0.0 | 1.0 | 0.00 | 0.00 | 0.00 | 68 | 1016.2 |
| 20260503025030 | 44 | 257 | 0.0 | 0.0 | 0.00 | 0.00 | 0.00 | 68 | 1016.3 |